This demonstration page uses our WeatherBlox Daily Observations layout. Learn more.

Left ArrowRight Arrow

30.21309, -93.2044

Hourly Observations for June 18, 2019

Temp ( °F °C ) Dew Point ( °F °C ) Humidity (%) Winds ( mph kmh ) Pressure ( in mb ) Visibility ( mi km ) Precip ( " mm )
12:15 am 00:15 Clear 74 23.1 73 22.8 98 98 Calm 29.91 1013 10 16 0.00 0.00
12:35 am 00:35 Clear 74 23.5 74 23.2 98 98 Calm 29.92 1013 10 16 0.00 0.00
12:55 am 00:55 Clear 74 23.1 73 23 99 99 Calm 29.91 1013 3 4 0.00 0.00
1:15 am 01:15 Clear 73 22.8 73 22.6 99 99 E 5 7 29.90 1013 4 6 0.00 0.00
1:35 am 01:35 Mostly Cloudy 73 22.7 73 22.5 99 99 E 5 7 29.91 1013 1 2 0.00 0.00
1:55 am 01:55 Clear 74 23.4 74 23.1 98 98 N 6 9 29.91 1013 4 6 0.00 0.00
2:15 am 02:15 Clear 74 23.1 73 23 99 99 Calm 29.91 1013 10 16 0.00 0.00
2:35 am 02:35 Clear 73 22.6 73 22.5 99 99 Calm 29.91 1013 7 11 0.00 0.00
2:55 am 02:55 Clear 73 22.6 72 22.4 99 99 Calm 29.91 1013 5 8 0.00 0.00
3:15 am 03:15 Mostly Cloudy 72 22 71 21.8 99 99 E 7 11 29.91 1013 1 1 0.00 0.00
3:35 am 03:35 Mostly Cloudy 71 21.7 71 21.5 99 99 ESE 3 6 29.91 1013 1 1 0.00 0.00
3:55 am 03:55 Mostly Cloudy 72 22.3 72 22.1 99 99 Calm 29.92 1013 1 1 0.00 0.00
4:15 am 04:15 Partly Cloudy 72 22.3 72 22.2 99 99 Calm 29.91 1013 5 8 0.00 0.00
4:35 am 04:35 Clear 71 21.8 71 21.6 99 99 E 12 19 29.91 1013 4 6 0.00 0.00
4:55 am 04:55 Mostly Cloudy 71 21.7 71 21.6 99 99 E 6 9 29.92 1013 2 2 0.00 0.00
5:15 am 05:15 Mostly Cloudy 72 22 72 22 100 100 Calm 29.92 1013 1 2 0.01 0.25
5:35 am 05:35 Clear 73 22.5 72 22.3 99 99 Calm 29.92 1013 10 16 0.01 0.25
6:00 am 06:00 Mostly Clear 72 22 72 22 100 100 Calm 29.92 1013 10 16 0.00 0.00
6:50 am 06:50 Mostly Sunny 72 22 72 22 100 100 Calm 29.93 1014 10 16 0.00 0.00
7:50 am 07:50 Mostly Sunny 77 25 75 24 94 94 Calm 29.94 1014 10 16 0.00 0.00
8:47 am 08:47 Mostly Cloudy 81 27 75 24 84 84 Calm 29.94 1014 10 16 0.00 0.00
9:50 am 09:50 Mostly Cloudy 82 28 73 23 74 74 S 3 6 29.94 1014 10 16 0.00 0.00
10:50 am 10:50 Mostly Cloudy 84 29 72 22 66 66 SSW 8 13 29.96 1015 10 16 0.00 0.00
11:50 am 11:50 Mostly Cloudy 84 29 72 22 66 66 VRB 5 7 29.96 1015 10 16 0.00 0.00
12:45 pm 12:45 Mostly Cloudy 88 31 72 22 59 59 VRB 7 11 29.94 1014 10 16 0.00 0.00
1:55 pm 13:55 Mostly Cloudy 88 31 72 22 59 59 VRB 7 11 29.94 1014 10 16 0.00 0.00
2:45 pm 14:45 Mostly Cloudy 91 33 72 22 52 52 NW 9 15 29.90 1012 10 16 0.00 0.00
3:50 pm 15:50 Mostly Cloudy 91 33 72 22 52 52 VRB 7 11 29.86 1011 10 16 0.00 0.00
4:45 pm 16:45 Mostly Cloudy 88 31 72 22 59 59 S 5 7 29.86 1011 10 16 0.00 0.00
5:55 pm 17:55 Mostly Cloudy 88 31 75 24 66 66 SW 8 13 29.86 1011 10 16 0.00 0.00
6:55 pm 18:55 Mostly Cloudy 86 30 75 24 70 70 SSW 9 15 29.86 1011 10 16 0.00 0.00
9:45 pm 21:45 Mostly Clear 81 27 75 24 84 84 SSE 7 11 29.88 1012 10 16 0.00 0.00
10:15 pm 22:15 Clear 80 26.8 75 23.7 83 83 S 7 11 29.89 1012 10 16 0.00 0.00
10:35 pm 22:35 Clear 81 27 74 23.5 81 81 SSW 6 9 29.89 1012 10 16 0.00 0.00
10:55 pm 22:55 Clear 80 26.5 74 23.6 84 84 ESE 7 11 29.90 1013 10 16 0.00 0.00
11:15 pm 23:15 Clear 80 26.6 74 23.6 84 84 SSW 6 9 29.90 1013 10 16 0.00 0.00
11:35 pm 23:35 Clear 80 26.7 75 23.7 84 84 SW 5 7 29.91 1013 10 16 0.00 0.00
11:55 pm 23:55 Clear 80 26.5 75 23.7 85 85 SE 6 9 29.91 1013 10 16 0.00 0.00

Powered by AerisWeather